Location: Conflandey
(47.7287°N, 6.0456°E)
Time: 03:11:03
(UTC+00:00)

Cosmos 1844 Rocket - Pass Details

Date: 24 October 2021
Orbit: 826 x 843 km, 71.0° (Epoch: 28 November)

Event Time Altitude Azimuth Distance (km) Brightness Sun altitude
Rises 17:19:47 0° 336° (NNW) 3,377 6.0 -8.8°
Reaches altitude 10° 17:22:26 10° 345° (NNW) 2,439 5.2 -9.3°
Maximum altitude 17:27:33 36° 51° (NE) 1,298 3.3 -10.1°
Drops below altitude 10° 17:32:38 10° 118° (ESE) 2,427 4.6 -11.0°
Enters shadow 17:33:10 - 120° (ESE) 2,610 4.8 -11.1°
